Weather History for Cotulla, TX

Change the Weather History Date:

Monday, December 31, 2012

  Actual Average Record
Temperature  
Mean Temperature 59 °F -  
Max Temperature 63 °F 64 °F 82 °F (2004)
Min Temperature 55 °F 41 °F 37 °F (2001)
Degree Days  
Heating Degree Days 6    
Growing Degree Days 9 (Base 50)    
Moisture  
Dew Point 56 °F    
Average Humidity 93    
Maximum Humidity 100    
Minimum Humidity 81    
Precipitation  
Precipitation 0.01 in - - ()
Sea Level Pressure  
Sea Level Pressure 29.99 in    
Wind  
Wind Speed 4 mph (East)    
Max Wind Speed 9 mph    
Max Gust Speed -    
Visibility 6 miles    
Events Rain    
Averages and records for this station are not official NWS values.
T = Trace of Precipitation, MM = Missing Value Source: NWS Daily Summary

Daily Weather History Graph

Daily Weather History Graph

Search for Another Location

Airport:

Trip Planner

Search our weather history database for the weather conditions in past years. The results will help you decide how hot, cold, wet, or windy it might be!

Date:

Astronomy

Dec. 31, 2012 Rise Set
Actual Time 7:29 AM CST 5:51 PM CST
Civil Twilight 7:03 AM CST 6:17 PM CST
Nautical Twilight 6:34 AM CST 6:46 PM CST
Astronomical Twilight 6:05 AM CST 7:15 PM CST
Moon 9:05 PM CST 9:27 AM CST
Length of Visible Light 11h 13m
Length of Day
10h 22m
Waning Gibbous, 90% of the Moon is Illuminated
Dec 31
Waning Gibbous
Jan 4
Last Quarter
Jan 11
New
Jan 18
First Quarter
Jan 26
Full

Hourly Weather History & Observations

Time (CST) Temp. Dew Point Humidity Pressure Visibility Wind Dir Wind Speed Gust Speed Precip Events Conditions
12:53 AM 57.0 °F 51.1 °F 81% 30.12 in 10.0 mi ESE 9.2 mph - N/A   Overcast
1:53 AM 55.9 °F 51.1 °F 84% 30.10 in 10.0 mi East 4.6 mph - N/A   Overcast
2:53 AM 55.0 °F 52.0 °F 89% 30.08 in 6.0 mi East 5.8 mph - 0.00 in Rain Light Rain
3:53 AM 55.9 °F 54.0 °F 93% 30.06 in 9.0 mi East 3.5 mph - 0.00 in   Overcast
4:03 AM 55.4 °F 53.6 °F 94% 30.06 in 10.0 mi East 5.8 mph - N/A   Overcast
4:53 AM 55.9 °F 53.1 °F 90% 30.03 in 8.0 mi East 5.8 mph - N/A   Overcast
5:41 AM 55.4 °F 55.4 °F 100% 30.05 in 7.0 mi Calm Calm - 0.00 in Rain Light Rain
5:53 AM 55.9 °F 54.0 °F 93% 30.04 in 6.0 mi East 3.5 mph - 0.00 in Rain Light Rain
6:39 AM 55.4 °F 55.4 °F 100% 30.04 in 2.5 mi Calm Calm - 0.00 in Rain Light Rain
6:53 AM 55.9 °F 55.0 °F 97% 30.02 in 2.0 mi ESE 3.5 mph - 0.00 in   Overcast
7:05 AM 55.4 °F 55.4 °F 100% 30.04 in 2.0 mi Calm Calm - N/A   Overcast
7:13 AM 55.4 °F 55.4 °F 100% 30.03 in 1.8 mi Calm Calm - N/A   Overcast
7:25 AM 55.4 °F 55.4 °F 100% 30.03 in 2.0 mi East 3.5 mph - N/A   Overcast
7:32 AM 55.4 °F 55.4 °F 100% 30.03 in 3.0 mi Calm Calm - N/A   Overcast
7:53 AM 55.9 °F 55.9 °F 100% 30.02 in 2.5 mi Calm Calm - N/A   Overcast
8:35 AM 57.2 °F 55.4 °F 94% 30.02 in 3.0 mi ESE 8.1 mph - N/A   Overcast
8:53 AM 57.0 °F 55.9 °F 96% 30.01 in 4.0 mi ESE 5.8 mph - N/A   Overcast
9:53 AM 59.0 °F 57.0 °F 93% 30.02 in 6.0 mi ENE 3.5 mph - 0.00 in Rain Light Rain
10:53 AM 60.1 °F 57.9 °F 93% 30.01 in 8.0 mi ESE 4.6 mph - 0.01 in   Mostly Cloudy
11:53 AM 62.1 °F 57.9 °F 86% 29.97 in 10.0 mi ESE 9.2 mph - 0.00 in Rain Light Rain
12:53 PM 62.1 °F 57.9 °F 86% 29.94 in 10.0 mi SE 8.1 mph - 0.00 in Rain Light Rain
1:53 PM 62.1 °F 57.9 °F 86% 29.94 in 10.0 mi NW 5.8 mph - 0.00 in   Mostly Cloudy
2:53 PM 63.0 °F 57.0 °F 81% 29.91 in 10.0 mi NE 3.5 mph - 0.00 in Rain Light Rain
3:53 PM 63.0 °F 57.9 °F 84% 29.88 in 10.0 mi ESE 3.5 mph - 0.00 in Rain Light Rain
4:53 PM 62.1 °F 57.9 °F 86% 29.89 in 10.0 mi Calm Calm - 0.00 in   Overcast
5:53 PM 61.0 °F 59.0 °F 93% 29.90 in 10.0 mi NW 5.8 mph - 0.00 in   Clear
6:53 PM 61.0 °F 59.0 °F 93% 29.93 in 8.0 mi NNW 4.6 mph - N/A   Clear
7:53 PM 60.1 °F 57.9 °F 93% 29.94 in 6.0 mi Calm Calm - N/A   Scattered Clouds
8:09 PM 59.0 °F 57.2 °F 94% 29.95 in 5.0 mi Calm Calm - N/A   Scattered Clouds
8:16 PM 59.0 °F 57.2 °F 94% 29.95 in 5.0 mi NW 3.5 mph - N/A   Mostly Cloudy
8:44 PM 59.0 °F 57.2 °F 94% 29.94 in 6.0 mi Calm Calm - N/A   Partly Cloudy
8:53 PM 59.0 °F 57.9 °F 96% 29.93 in 5.0 mi Calm Calm - N/A   Clear
9:53 PM 59.0 °F 57.9 °F 96% 29.93 in 6.0 mi North 3.5 mph - N/A   Clear
10:53 PM 59.0 °F 57.9 °F 96% 29.94 in 5.0 mi Calm Calm - N/A   Partly Cloudy
11:11 PM 59.0 °F 57.2 °F 94% 29.96 in 5.0 mi Calm Calm - N/A   Mostly Cloudy
11:53 PM 59.0 °F 57.9 °F 96% 29.93 in 5.0 mi Calm Calm - N/A   Overcast